sat.trackr.live / text

‹ back to catalog

STARLINK-30582

NORAD 58059 · 2023-158J

PAYLOAD ACTIVE UNKNOWN

§ Identity

Operator
Country
US
Launch date
2023-10-13
Launch site
AFETR
Launch vehicle
Mass (kg)
RCS (m²)

Purposes: comms

External: N2YO · Heavens-Above · Gunter

§ Orbital elements

Epoch: 2026-09-20T08:11:09.200544Z

Period
94.27 min
Inclination
43.0052°
Eccentricity
0.0001495
Mean motion
15.27572366 rev/d
Perigee alt
482.0 km
Apogee alt
484.1 km
Semi-major
6,861.2 km
B*
3.1593e-6
RAAN
7.3963°
Arg perigee
258.5553°
Mean anomaly
101.5131°
Rev number
16,334

§ Raw data

STARLINK-305821 58059U 23158J   26263.34107871 -.00000175  00000+0  31593-5 0  99952 58059  43.0052   7.3963 0001495 258.5553 101.5131 15.27572366163346

JSON: /api/v1/satellites/58059 · /tle

For live sub-satellite position, see the globe view (requires WebGL).

§ Visibility from observer

Set your observer location to see the next 7 days of passes ≥ 10°. The values pass through the URL so the page stays shareable.

No JS? Fill the form by hand. The geolocation button needs JavaScript.